1283472032556,0.530671
1283472092556,0.526587
1283472152556,0.529942
1283472212556,0.527129
1283472272556,0.531789
1283472332556,0.528239
1283472392556,0.534477
1283472452556,0.527393
1283472512556,0.534795
1283472572556,0.526436
1283472632556,0.532403
1283472692556,0.532909
1283472752556,0.526500
1283472812556,0.529765
1283472872556,0.543011
1283472932556,0.530491
1283472992556,0.527587
1283473052556,0.526430
1283473112556,0.527623
1283473172556,0.532268
1283473232556,0.530778
1283473292556,0.535878
1283473352556,0.535984
1283473412556,0.530195
1283473472556,0.527503
1283473532556,0.531488
1283473592556,0.526113
1283473652556,0.533509
1283473712556,0.526507
1283473772556,0.528124
1283473832556,0.523002
1283473892556,0.533055
1283473952556,0.534604
1283474012556,0.531408
1283474072556,0.528929
1283474132556,0.526698
1283474192556,0.527042
1283474252556,0.531166
1283474312556,0.529837
1283474372556,0.530057
1283474432556,0.532740
1283474492556,0.530157
1283474552556,0.530843
1283474612556,0.528498
1283474672556,0.527042
1283474732556,0.525575
1283474792556,0.524513
1283474852556,0.525572
1283474912556,0.529655
1283474972556,0.534047
1283475032556,0.532254
1283475092556,0.532867
1283475152556,0.530450
1283475212556,0.527737
1283475272556,0.536632
1283475332556,0.523996
1283475392556,0.528874
1283475452556,0.528764
1283475512556,0.533797
1283475572556,0.527890
1283475632565,0.525851
1283475692565,0.528260
1283475752565,0.525301
1283475812565,0.527817
1283475872565,0.532388
1283475932565,0.525373
1283475992565,0.527363
1283476052565,0.529961
1283476112565,0.529446
1283476172565,0.531928
1283476232565,0.528753
1283476292565,0.531639
1283476352565,0.531366
1283476412565,0.528801
1283476472565,0.530014
1283476532565,0.528104
1283476592565,0.526851
1283476652565,0.528449
1283476712565,0.536353
1283476772565,0.529263
1283476832565,0.528343
1283476892565,0.530795
1283476952565,0.535849
1283477012565,0.533846
1283477072565,0.530613
1283477132565,0.527397
1283477192565,0.525450
1283477252565,0.529034
1283477312565,0.525957
1283477372565,0.526323
1283477432565,0.530205
1283477492565,0.531889
1283477552565,0.527390
1283477612565,0.529722
1283477672565,0.539089
1283477732565,0.534396
1283477792565,0.527609
1283477852565,0.529221
1283477912565,0.525658
1283477972565,0.525899
1283478032565,0.530189
1283478092565,0.527562
1283478152565,0.528341
1283478212565,0.527358
1283478272565,0.534085
1283478332565,0.527659
1283478392565,0.529321
1283478452565,0.529448
1283478512565,0.531577
1283478572565,0.534112
1283478632565,0.531439
1283478692565,0.534840
1283478752565,0.532377
1283478812565,0.535308
1283478872565,0.534387
1283478932565,0.531074
1283478992565,0.526248
1283479052565,0.526126
1283479112565,0.525592
1283479172565,0.530065
1283479232574,0.533771
1283479292574,0.527444
1283479352574,0.528460
1283479412574,0.532154
1283479472574,0.532135
1283479532574,0.535033
1283479592574,0.528042
1283479652574,0.531765
1283479712574,0.530775
1283479772574,0.537227
1283479832574,0.534262
1283479892574,0.534644
1283479952574,0.531792
1283480012574,0.525908
1283480072574,0.531709
1283480132574,0.533029
1283480192574,0.532117
1283480252574,0.531325
1283480312574,0.531906
1283480372574,0.533913
1283480432574,0.531663
1283480492574,0.532401
1283480552574,0.536267
1283480612574,0.529204
1283480672574,0.537041
1283480732574,0.534696
1283480792574,0.531174
1283480852574,0.534912
1283480912574,0.533409
1283480972574,0.537682
1283481032574,0.538801
1283481092574,0.534729
1283481152574,0.529397
1283481212574,0.529602
1283481272574,0.535486
1283481332574,0.532067
1283481392574,0.531200
1283481452574,0.530579
1283481512574,0.536948
1283481572574,0.533339
1283481632574,0.532379
1283481692574,0.531975
1283481752574,0.530318
1283481812574,0.535393
1283481872574,0.531628
1283481932574,0.542194
1283481992574,0.536586
1283482052574,0.530498
1283482112574,0.528854
1283482172574,0.531797
1283482232574,0.527667
1283482292574,0.532600
1283482352574,0.532416
1283482412574,0.529503
1283482472574,0.536406
1283482532574,0.527512
1283482592574,0.536033
1283482652574,0.532857
1283482712574,0.531459
1283482772574,0.528908
1283482832583,0.532671
1283482892583,0.532020
1283482952583,0.533054
1283483012583,0.532502
1283483072583,0.528414
1283483132583,0.530385
1283483192583,0.538832
1283483252583,0.536338
1283483312583,0.536694
1283483372583,0.535584
1283483432583,0.536419
1283483492583,0.534441
1283483552583,0.537787
1283483612583,0.530272
1283483672583,0.536995
1283483732583,0.534194
1283483792583,0.535504
1283483852583,0.536688
1283483912583,0.540274
1283483972583,0.531155
1283484032583,0.535625
1283484092583,0.536478
1283484152583,0.536794
1283484212583,0.541274
1283484272583,0.537795
1283484332583,0.531462
1283484392583,0.530883
1283484452583,0.536695
1283484512583,0.535908
1283484572583,0.528620
1283484632583,0.527309
1283484692583,0.536344
1283484752583,0.538768
1283484812583,0.533583
1283484872583,0.533819
1283484932583,0.528427
1283484992583,0.528292
1283485052583,0.532650
1283485112583,0.532221
1283485172583,0.538071
1283485232583,0.541270
1283485292583,0.539574
1283485352583,0.536308
1283485412583,0.535690
1283485472583,0.540564
1283485532583,0.533077
1283485592583,0.525792
1283485652583,0.534660
1283485712583,0.534572
1283485772583,0.530968
1283485832583,0.536887
1283485892583,0.532241
1283485952583,0.532501
1283486012583,0.532877
1283486072583,0.534509
1283486132583,0.533303
1283486192583,0.535894
1283486252583,0.533465
1283486312583,0.541133
1283486372583,0.535394
1283486432592,0.532902
1283486492592,0.540540
1283486552592,0.535645
1283486612592,0.539645
1283486672592,0.527688
1283486732592,0.535020
1283486792592,0.540918
1283486852592,0.531334
1283486912592,0.535544
1283486972592,0.531289
1283487032592,0.533118
1283487092592,0.533833
1283487152592,0.534277
1283487212592,0.533604
1283487272592,0.534680
1283487332592,0.528454
1283487392592,0.531275
1283487452592,0.534498
1283487512592,0.534262
1283487572592,0.536326
1283487632592,0.536150
1283487692592,0.533785
1283487752592,0.542950
1283487812592,0.532334
1283487872592,0.536691
1283487932592,0.532863
1283487992592,0.530926
1283488052592,0.530423
1283488112592,0.531163
1283488172592,0.533683
1283488232592,0.530217
1283488292592,0.534466
1283488352592,0.533347
1283488412592,0.537865
1283488472592,0.534039
1283488532592,0.532748
1283488592592,0.530033
1283488652592,0.534378
1283488712592,0.537395
1283488772592,0.532840
1283488832592,0.536634
1283488892592,0.538580
1283488952592,0.528671
1283489012592,0.531424
1283489072592,0.533000
1283489132592,0.532402
1283489192592,0.539727
1283489252592,0.533099
1283489312592,0.528799
1283489372592,0.531404
1283489432592,0.529709
1283489492592,0.536528
1283489552592,0.539591
1283489612592,0.532610
1283489672592,0.530624
1283489732592,0.527055
1283489792592,0.534185
1283489852592,0.540759
1283489912592,0.532128
1283489972592,0.531075
1283490032601,0.536422
1283490092601,0.537826
1283490152601,0.534472
1283490212601,0.530798
1283490272601,0.526830
1283490332601,0.527446
1283490392601,0.529760
1283490452601,0.536340
1283490512601,0.534261
1283490572601,0.531804
1283490632601,0.532887
1283490692601,0.535719
1283490752601,0.534957
1283490812601,0.535935
1283490872601,0.534795
1283490932601,0.537723
1283490992601,0.531219
1283491052601,0.525106
1283491112601,0.535895
1283491172601,0.537152
1283491232601,0.533886
1283491292601,0.533823
1283491352601,0.532149
1283491412601,0.537206
1283491472601,0.529117
1283491532601,0.528496
1283491592601,0.533180
1283491652601,0.535814
1283491712601,0.534792
1283491772601,0.538091
1283491832601,0.533696
1283491892601,0.535522
1283491952601,0.531534
1283492012601,0.532579
1283492072601,0.531622
1283492132601,0.535434
1283492192601,0.535076
1283492252601,0.539672
1283492312601,0.543394
1283492372601,0.536544
1283492432601,0.535159
1283492492601,0.536262
1283492552601,0.534149
1283492612601,0.536057
1283492672601,0.533508
1283492732601,0.532795
1283492792601,0.542191
1283492852601,0.529469
1283492912601,0.532825
1283492972601,0.534436
1283493032601,0.532431
1283493092601,0.532821
1283493152601,0.531371
1283493212601,0.533188
1283493272601,0.525107
1283493332601,0.527656
1283493392601,0.533669
1283493452601,0.529316
1283493512601,0.535005
1283493572601,0.532518
1283493632610,0.537501
1283493692610,0.530317
1283493752610,0.529494
1283493812610,0.530633
1283493872610,0.534615
1283493932610,0.528089
1283493992610,0.533530
1283494052610,0.534594
1283494112610,0.530740
1283494172610,0.537452
1283494232610,0.535263
1283494292610,0.525912
1283494352610,0.534983
1283494412610,0.534692
1283494472610,0.527310
1283494532610,0.529622
1283494592610,0.535288
1283494652610,0.534342
1283494712610,0.533036
1283494772610,0.540590
1283494832610,0.536692
1283494892610,0.533803
1283494952610,0.534175
1283495012610,0.536973
1283495072610,0.537913
1283495132610,0.539368
1283495192610,0.541854
1283495252610,0.534957
1283495312610,0.531943
1283495372610,0.535750
1283495432610,0.537268
1283495492610,0.530272
1283495552610,0.536519
1283495612610,0.530905
1283495672610,0.530160
1283495732610,0.539143
1283495792610,0.532561
1283495852610,0.535594
1283495912610,0.538157
1283495972610,0.541762
1283496032610,0.531802
1283496092610,0.534581
1283496152610,0.539202
1283496212610,0.534686
1283496272610,0.537669
1283496332610,0.535738
1283496392610,0.531545
1283496452610,0.540222
1283496512610,0.541175
1283496572610,0.531211
1283496632610,0.540198
1283496692610,0.538053
1283496752610,0.534627
1283496812610,0.538455
1283496872610,0.532283
1283496932610,0.534856
1283496992610,0.536453
1283497052610,0.545448
1283497112610,0.531399
1283497172610,0.536296
1283497232619,0.532518
1283497292619,0.534610
1283497352619,0.534385
1283497412619,0.535091
1283497472619,0.533410
1283497532619,0.538440
1283497592619,0.534180
1283497652619,0.530973
1283497712619,0.540556
1283497772619,0.531998
1283497832619,0.538488
1283497892619,0.529428
1283497952619,0.533946
1283498012619,0.536174
1283498072619,0.539895
1283498132619,0.533248
1283498192619,0.537199
1283498252619,0.537625
1283498312619,0.540835
1283498372619,0.529712
1283498432619,0.530603
1283498492619,0.542370
1283498552619,0.532585
1283498612619,0.536346
1283498672619,0.536500
1283498732619,0.539069
1283498792619,0.541773
1283498852619,0.537916
1283498912619,0.535173
1283498972619,0.528636
1283499032619,0.534062
1283499092619,0.533534
1283499152619,0.538317
1283499212619,0.535945
1283499272619,0.534729
1283499332619,0.534486
1283499392619,0.535682
1283499452619,0.534995
1283499512619,0.537411
1283499572619,0.538570
1283499632619,0.540930
1283499692619,0.536016
1283499752619,0.532144
1283499812619,0.535039
1283499872619,0.541078
1283499932619,0.541579
1283499992619,0.537028
1283500052619,0.539505
1283500112619,0.533928
1283500172619,0.533738
1283500232619,0.529464
1283500292619,0.538974
1283500352619,0.535168
1283500412619,0.538861
1283500472619,0.534720
1283500532619,0.538090
1283500592619,0.537883
1283500652619,0.536136
1283500712619,0.537630
1283500772619,0.534628
1283500832628,0.536379
1283500892628,0.530967
1283500952628,0.532311
1283501012628,0.536093
1283501072628,0.535305
1283501132628,0.535755
1283501192628,0.535035
1283501252628,0.540530
1283501312628,0.537411
1283501372628,0.541506
1283501432628,0.534678
1283501492628,0.543924
1283501552628,0.539008
1283501612628,0.534146
1283501672628,0.535032
1283501732628,0.536655
1283501792628,0.539129
1283501852628,0.533361
1283501912628,0.538509
1283501972628,0.535598
1283502032628,0.534243
1283502092628,0.535504
1283502152628,0.539987
1283502212628,0.533875
1283502272628,0.533793
1283502332628,0.532433
1283502392628,0.535380
1283502452628,0.536722
1283502512628,0.537741
1283502572628,0.534041
1283502632628,0.528706
1283502692628,0.527989
1283502752628,0.533476
1283502812628,0.535392
1283502872628,0.530715
1283502932628,0.532427
1283502992628,0.536725
1283503052628,0.537436
1283503112628,0.536985
1283503172628,0.538343
1283503232628,0.534112
1283503292628,0.538276
1283503352628,0.536509
1283503412628,0.541399
1283503472628,0.543225
1283503532628,0.539026
1283503592628,0.539381
1283503652628,0.533084
1283503712628,0.535111
1283503772628,0.539384
1283503832628,0.531498
1283503892628,0.543057
1283503952628,0.542550
1283504012628,0.535737
1283504072628,0.532348
1283504132628,0.543056
1283504192628,0.537609
1283504252628,0.533307
1283504312628,0.540756
1283504372628,0.537211
1283504432637,0.540322
1283504492637,0.536692
1283504552637,0.536664
1283504612637,0.538626
1283504672637,0.537704
1283504732637,0.537552
1283504792637,0.542437
1283504852637,0.538847
1283504912637,0.537637
1283504972637,0.542056
1283505032637,0.540783
1283505092637,0.537673
1283505152637,0.541090
1283505212637,0.548491
1283505272637,0.539196
1283505332637,0.542470
1283505392637,0.541023
1283505452637,0.538137
1283505512637,0.537176
1283505572637,0.536982
1283505632637,0.535306
1283505692637,0.543961
1283505752637,0.535652
1283505812637,0.539437
1283505872637,0.536263
1283505932637,0.537568
1283505992637,0.538836
1283506052637,0.533067
1283506112637,0.540650
1283506172637,0.532502
1283506232637,0.535988
1283506292637,0.537384
1283506352637,0.538996
1283506412637,0.534108
1283506472637,0.534168
1283506532637,0.534568
1283506592637,0.535612
1283506652637,0.539471
1283506712637,0.536550
1283506772637,0.536284
1283506832637,0.533366
1283506892637,0.534809
1283506952637,0.537381
1283507012637,0.533006
1283507072637,0.542127
1283507132637,0.532689
1283507192637,0.538624
1283507252637,0.535358
1283507312637,0.534814
1283507372637,0.537646
1283507432637,0.537463
1283507492637,0.540947
1283507552637,0.540638
1283507612637,0.536781
1283507672637,0.535517
1283507732637,0.537248
1283507792637,0.539227
1283507852637,0.541040
1283507912637,0.541175
1283507972637,0.539613
1283508032646,0.536645
1283508092646,0.539169
1283508152646,0.539962
1283508212646,0.539461
1283508272646,0.534453
1283508332646,0.538812
1283508392646,0.535885
1283508452646,0.532306
1283508512646,0.540882
1283508572647,0.537726
1283508632647,0.539537
1283508692647,0.534551
1283508752647,0.540156
1283508812646,0.535954
1283508872646,0.541063
1283508932646,0.538083
1283508992646,0.532047
1283509052646,0.540757
1283509112646,0.537806
1283509172646,0.538087
1283509232646,0.536569
1283509292646,0.533074
1283509352646,0.533567
1283509412646,0.533944
1283509472646,0.539383
1283509532646,0.543520
1283509592646,0.538064
1283509652646,0.540344
1283509712646,0.530592
1283509772646,0.534576
1283509832646,0.537244
1283509892647,0.537787
1283509952647,0.535470
1283510012647,0.535962
1283510072647,0.532336
1283510132646,0.536211
1283510192646,0.537948
1283510252646,0.530833
1283510312646,0.535313
1283510372646,0.534729
1283510432646,0.534441
1283510492646,0.528714
1283510552646,0.536808
1283510612646,0.539730
1283510672646,0.532328
1283510732646,0.536742
1283510792646,0.542469
1283510852646,0.536045
1283510912646,0.532864
1283510972646,0.538465
1283511032646,0.532383
1283511092646,0.538781
1283511152646,0.542508
1283511212646,0.540133
1283511272647,0.542813
1283511332647,0.535383
1283511392647,0.536851
1283511452647,0.538740
1283511512646,0.538079
1283511572646,0.536564
1283511632656,0.536589
1283511692656,0.533959
1283511752656,0.540957
1283511812656,0.539218
1283511872656,0.543497
1283511932656,0.534426
1283511992656,0.535559
1283512052656,0.536457
1283512112656,0.532952
1283512172656,0.535638
1283512232656,0.538933
1283512292656,0.534596
1283512352656,0.532377
1283512412656,0.538626
1283512472656,0.543000
1283512532656,0.538480
1283512592656,0.538537
1283512652656,0.529130
1283512712656,0.538505
1283512772656,0.534898
1283512832656,0.534918
1283512892656,0.532465
1283512952656,0.537675
1283513012656,0.537717
1283513072656,0.535535
1283513132656,0.536245
1283513192656,0.538671
1283513252656,0.536934
1283513312656,0.540926
1283513372656,0.538412
1283513432656,0.543310
1283513492656,0.539784
1283513552656,0.538528
1283513612656,0.541835
1283513672656,0.534474
1283513732656,0.536965
1283513792656,0.538460
1283513852656,0.540532
1283513912656,0.534037
1283513972656,0.539148
1283514032656,0.538013
1283514092656,0.537917
1283514152656,0.535190
1283514212656,0.541350
1283514272656,0.543214
1283514332656,0.539198
1283514392656,0.541116
1283514452656,0.541304
1283514512656,0.538241
1283514572656,0.540872
1283514632656,0.543055
1283514692656,0.535239
1283514752656,0.533408
1283514812656,0.537623
1283514872656,0.540022
1283514932656,0.542148
1283514992656,0.538621
1283515052656,0.538433
1283515112656,0.538436
1283515172656,0.536267
1283515232666,0.537735
1283515292666,0.539967
1283515352666,0.540092
1283515412666,0.535415
1283515472666,0.541539
1283515532666,0.535455
1283515592666,0.541551
1283515652666,0.543357
1283515712666,0.535672
1283515772666,0.533765
1283515832666,0.536643
1283515892666,0.537646
1283515952666,0.540058
1283516012666,0.539592
1283516072666,0.531128
1283516132666,0.533286
1283516192666,0.536913
1283516252666,0.541560
1283516312666,0.542865
1283516372666,0.539514
1283516432666,0.540523
1283516492666,0.537404
1283516552666,0.536399
1283516612666,0.543161
1283516672666,0.539703
1283516732666,0.541232
1283516792666,0.536426
1283516852666,0.537879
1283516912666,0.540459
1283516972666,0.536025
1283517032666,0.536463
1283517092666,0.534321
1283517152666,0.538817
1283517212666,0.536327
1283517272666,0.545557
1283517332666,0.539060
1283517392666,0.542499
1283517452666,0.537336
1283517512666,0.539358
1283517572666,0.539336
1283517632666,0.536116
1283517692666,0.540563
1283517752666,0.537880
1283517812666,0.541434
1283517872666,0.549762
1283517932666,0.540404
1283517992666,0.542810
1283518052666,0.536341
1283518112666,0.537174
1283518172666,0.538201
1283518232666,0.540241
1283518292666,0.533992
1283518352666,0.542138
1283518412666,0.536041
1283518472666,0.542333
1283518532666,0.541418
1283518592666,0.539182
1283518652666,0.529215
1283518712666,0.542912
1283518772666,0.544458
1283518832675,0.535629
1283518892675,0.540309
1283518952675,0.539200
1283519012675,0.543912
1283519072675,0.539392
1283519132675,0.538146
1283519192675,0.537104
1283519252675,0.537336
1283519312675,0.545308
1283519372675,0.540753
1283519432675,0.543821
1283519492675,0.542127
1283519552675,0.543684
1283519612675,0.535918
1283519672675,0.538809
1283519732675,0.536762
1283519792675,0.545994
1283519852675,0.539623
1283519912675,0.539808
1283519972675,0.542506
1283520032675,0.540736
1283520092675,0.540751
1283520152675,0.541098
1283520212675,0.537519
1283520272675,0.540191
1283520332675,0.534400
1283520392675,0.542393
1283520452675,0.538511
1283520512675,0.536823
1283520572675,0.542188
1283520632675,0.545991
1283520692675,0.539897
1283520752675,0.537361
1283520812675,0.535209
1283520872675,0.540412
1283520932675,0.537989
1283520992675,0.538292
1283521052675,0.536303
1283521112675,0.544223
1283521172675,0.540851
1283521232675,0.538283
1283521292675,0.537057
1283521352675,0.537003
1283521412675,0.548343
1283521472675,0.537794
1283521532675,0.536150
1283521592675,0.540597
1283521652675,0.544451
1283521712675,0.540203
1283521772675,0.539645
1283521832675,0.538784
1283521892675,0.535847
1283521952675,0.536735
1283522012675,0.537391
1283522072675,0.536487
1283522132675,0.536339
1283522192675,0.536188
1283522252675,0.544697
1283522312675,0.540901
1283522372675,0.537075
1283522432685,0.545658
1283522492685,0.540452
1283522552685,0.543324
1283522612685,0.538336
1283522672685,0.542216
1283522732685,0.543141
1283522792685,0.538742
1283522852685,0.542840
1283522912685,0.539844
1283522972685,0.535872
1283523032685,0.535468
1283523092685,0.541851
1283523152685,0.539761
1283523212685,0.545929
1283523272685,0.544962
1283523332685,0.538676
1283523392685,0.537268
1283523452685,0.538788
1283523512685,0.538617
1283523572685,0.539856
1283523632685,0.539344
1283523692685,0.536368
1283523752685,0.544842
1283523812685,0.537004
1283523872685,0.541598
1283523932685,0.536323
1283523992685,0.541099
1283524052685,0.531014
1283524112685,0.534387
1283524172685,0.537970
1283524232685,0.539202
1283524292685,0.541656
1283524352685,0.538186
1283524412685,0.545552
1283524472685,0.537083
1283524532685,0.540361
1283524592685,0.534747
1283524652685,0.539144
1283524712685,0.540216
1283524772685,0.536666
1283524832685,0.540344
1283524892685,0.541400
1283524952685,0.539728
1283525012685,0.539444
1283525072685,0.543157
1283525132685,0.548424
1283525192685,0.536188
1283525252685,0.543930
1283525312685,0.545766
1283525372685,0.542499
1283525432685,0.546128
1283525492685,0.539138
1283525552685,0.538573
1283525612685,0.542533
1283525672685,0.542747
1283525732685,0.543802
1283525792685,0.542401
1283525852685,0.551670
1283525912685,0.551325
1283525972685,0.542892
1283526032695,0.543350
1283526092695,0.541612
1283526152695,0.543565
1283526212695,0.544076
1283526272695,0.542487
1283526332695,0.539623
1283526392695,0.546307
1283526452695,0.544668
1283526512695,0.544804
1283526572695,0.550311
1283526632695,0.547122
1283526692695,0.548075
1283526752695,0.551835
1283526812695,0.554516
1283526872695,0.552818
1283526932695,0.553543
1283526992695,0.546366
1283527052695,0.551440
1283527112695,0.560269
1283527172695,0.561374
1283527232695,0.551255
1283527292695,0.554733
1283527352695,0.557387
1283527412695,0.556476
1283527472695,0.550573
1283527532695,0.560305
1283527592695,0.557636
1283527652695,0.552790
1283527712695,0.562672
1283527772695,0.556663
1283527832695,0.552953
1283527892695,0.559406
1283527952695,0.559530
1283528012695,0.550165
1283528072695,0.551699
1283528132695,0.549370
1283528192695,0.552476
1283528252695,0.557615
1283528312695,0.548962
1283528372695,0.553883
1283528432695,0.551532
1283528492695,0.554446
1283528552695,0.546267
1283528612695,0.548676
1283528672695,0.547120
1283528732695,0.545713
1283528792695,0.551310
1283528852695,0.544516
1283528912695,0.551256
1283528972695,0.551472
1283529032695,0.549115
1283529092695,0.542186
1283529152695,0.551439
1283529212695,0.547157
1283529272695,0.545998
1283529332695,0.546815
1283529392695,0.544837
1283529452695,0.544374
1283529512695,0.544572
1283529572695,0.545958
1283529632706,0.545194
1283529692706,0.548034
1283529752706,0.545494
1283529812706,0.549549
1283529872706,0.544827
1283529932706,0.546846
1283529992706,0.547290
1283530052706,0.538656
1283530112706,0.544105
1283530172706,0.544269
1283530232706,0.545779
1283530292706,0.545465
1283530352706,0.531957
1283530412706,0.543450
1283530472706,0.545930
1283530532706,0.541925
1283530592706,0.541231
1283530652706,0.543609
1283530712706,0.534613
1283530772706,0.537503
1283530832706,0.540196
1283530892706,0.538549
1283530952706,0.542023
1283531012706,0.543575
1283531072706,0.538595
1283531132706,0.538339
1283531192706,0.543008
1283531252706,0.537980
1283531312706,0.540637
1283531372706,0.542425
1283531432706,0.542415
1283531492706,0.537316
1283531552706,0.537571
1283531612706,0.541343
1283531672706,0.544946
1283531732706,0.541185
1283531792706,0.535996
1283531852706,0.536343
1283531912706,0.543849
1283531972706,0.542351
1283532032706,0.536703
1283532092706,0.539522
1283532152706,0.539510
1283532212706,0.541599
1283532272706,0.534594
1283532332706,0.535070
1283532392706,0.538886
1283532452706,0.535521
1283532512706,0.534369
1283532572706,0.536362
1283532632706,0.534729
1283532692706,0.534516
1283532752706,0.531274
1283532812706,0.536966
1283532872706,0.537720
1283532932706,0.535644
1283532992706,0.542730
1283533052706,0.529597
1283533112706,0.536415
1283533172706,0.533277
1283533232736,0.541885
1283533292736,0.541437
1283533352736,0.534990
1283533412736,0.541188
1283533472736,0.537057
1283533532736,0.536470
1283533592736,0.532401
1283533652736,0.540778
1283533712736,0.532324
1283533772736,0.538325
1283533832736,0.536398
1283533892736,0.536391
1283533952736,0.544050
1283534012736,0.529134
1283534072736,0.539899
1283534132736,0.539758
1283534192736,0.537954
1283534252736,0.537080
1283534312736,0.534632
1283534372736,0.533951
1283534432736,0.536620
1283534492736,0.535604
1283534552736,0.536415